SCP
0 0 0 0 0 0 0 0 0 0 0 0 0 0 0 0 0 0 0 0 0 0 0 0 0 0 0 0 0 0 0 0 0 0 0 0 0 0 0 0 0 0 0
0 0 0 0 0 0 0 0 0 0 0 0 0 0 0 0 0 0 0 0 0 0 0 0 0 0 0 0 0 0 0 0 0 0 0 0 0 0 0 0 0 0 0
0 0 0 0 0 0 0 0 0 0 0 0 0 0 0 0 0 0 0 0 0 0 0 0 0 0 0 0 0 0 0 0 0 0 0 0 0 0 0 0 0 0 0
0 0 0 0 0 0 0 0 0 0 0 0 0 0 0 0 0 0 0 0 0 0 0 0 0 0 0 0 0 0 0 0 0 0 0 0 0 0 0 0 0 0 0
0 0 0 0 0 0 0 0 0 0 0 0 0 0 0 0 0 0 0 0 0 0 0 0 0 0 0 0 0 0 0 0 0 0 0 0 0 0 0 0 0 0 0
0 0 0 0 0 0 0 0 0 0 0 0 0 0 0 0 0 0 0 0 0 0 0 0 0 0 0 0 0 0 0 0 0 0 0 0 0 0 0 0 0 0 0
0 0 0 0 0 0 0 0 0 0 0 0 0 0 0 0 0 0 0 0 0 0 0 0 0 0 0 0 0 0 0 0 0 0 0 0 0 0 0 0 0 0 0
0 0 0 0 0 0 0 0 0 0 0 0 0 0 0 0 0 0 0 0 0 0 0 0 0 0 0 0 0 0 0 0 0 0 0 0 0 0 0 0 0 0 0
0 0 0 0 0 0 0 0 0 0 0 0 0 0 0 0 0 0 0 0 0 0 0 0 0 0 0 0 0 0 0 0 0 0 0 0 0 0 0 0 0 0 0
0 0 0 0 0 0 0 0 0 0 0 0 0 0 0 0 0 0 0 0 0 0 0 0 0 0 0 0 0 0 0 0 0 0 0 0 0 0 0 0 0 0 0
0 0 0 0 0 0 0 0 0 0 0 0 0 0 0 0 0 0 0 0 0 0 0 0 0 0 0 0 0 0 0 0 0 0 0 0 0 0 0 0 0 0 0
0 0 0 0 0 0 0 0 0 0 0 0 0 0 0 0 0 0 0 0 0 0 0 0 0 0 0 0 0 0 0 0 0 0 0 0 0 0 0 0 0 0 0
0 0 0 0 0 0 0 0 0 0 0 0 0 0 0 0 0 0 0 0 0 0 0 0 0 0 0 0 0 0 0 0 0 0 0 0 0 0 0 0 0 0 0
0 0 0 0 0 0 0 0 0 0 0 0 0 0 0 0 0 0 0 0 0 0 0 0 0 0 0 0 0 0 0 0 0 0 0 0 0 0 0 0 0 0 0
0 0 0 0 0 0 0 0 0 0 0 0 0 0 0 0 0 0 0 0 0 0 0 0 0 0 0 0 0 0 0 0 0 0 0 0 0 0 0 0 0 0 0
0 0 0 0 0 0 0 0 0 0 0 0 0 0 0 0 0 0 0 0 0 0 0 0 0 0 0 0 0 0 0 0 0 0 0 0 0 0 0 0 0 0 0
0 0 0 0 0 0 0 0 0 0 0 0 0 0 0 0 0 0 0 0 0 0 0 0 0 0 0 0 0 0 0 0 0 0 0 0 0 0 0 0 0 0 0
0 0 0 0 0 0 0 0 0 0 0 0 0 0 0 0 0 0 0 0 0 0 0 0 0 0 0 0 0 0 0 0 0 0 0 0 0 0 0 0 0 0 0
0 0 0 0 0 0 0 0 0 0 0 0 0 0 0 0 0 0 0 0 0 0 0 0 0 0 0 0 0 0 0 0 0 0 0 0 0 0 0 0 0 0 0
0 0 0 0 0 0 0 0 0 0 0 0 0 0 0 0 0 0 0 0 0 0 0 0 0 0 0 0 0 0 0 0 0 0 0 0 0 0 0 0 0 0 0
0 0 0 0 0 0 0 0 0 0 0 0 0 0 0 0 0 0 0 0 0 0 0 0 0 0 0 0 0 0 0 0 0 0 0 0 0 0 0 0 0 0 0
0 0 0 0 0 0 0 0 0 0 0 0 0 0 0 0 0 0 0 0 0 0 0 0 0 0 0 0 0 0 0 0 0 0 0 0 0 0 0 0 0 0 0
0 0 0 0 0 0 0 0 0 0 0 0 0 0 0 0 0 0 0 0 0 0 0 0 0 0 0 0 0 0 0 0 0 0 0 0 0 0 0 0 0 0 0
0 0 0 0 0 0 0 0 0 0 0 0 0 0 0 0 0 0 0 0 0 0 0 0 0 0 0 0 0 0 0 0 0 0 0 0 0 0 0 0 0 0 0
0 0 0 0 0 0 0 0 0 0 0 0 0 0 0 0 0 0 0 0 0 0 0 0 0 0 0 0 0 0 0 0 0 0 0 0 0 0 0 0 0 0 0
0 0 0 0 0 0 0 0 0 0 0 0 0 0 0 0 0 0 0 0 0 0 0 0 0 0 0 0 0 0 0 0 0 0 0 0 0 0 0 0 0 0 0
Wind_Speed
2 2 4 6 8 9 10 10 11 11 11 11 11 11 11 11 11 11 12 12 12 12 13 14 14 15 15 15 15 15 15 15 15 15 14 14 14 15 15 14 12 9 14
4 3 4 7 9 9 10 10 10 10 10 11 11 11 11 11 11 11 11 12 12 12 13 13 14 14 15 15 14 14 15 14 14 14 13 11 12 14 14 14 12 9 14
5 3 4 7 9 9 10 10 10 9 10 10 11 10 11 11 11 11 11 11 12 12 12 13 13 14 14 13 13 14 14 14 13 13 11 7 8 13 14 14 14 13 13
6 4 4 7 9 10 10 10 9 9 9 9 10 10 10 11 11 11 11 11 12 12 12 13 12 13 12 12 12 13 13 13 12 10 6 5 6 12 13 13 14 14 13
5 3 4 7 9 9 9 9 9 9 9 9 10 10 10 10 10 10 10 11 11 12 12 12 12 12 11 11 12 12 13 13 12 9 5 5 5 11 13 13 13 13 13
4 3 4 7 9 9 9 9 9 8 8 9 9 9 10 10 10 10 10 10 11 11 11 11 11 11 11 11 11 12 12 12 9 6 5 5 4 10 12 12 12 13 13
4 3 3 7 8 8 8 8 8 8 8 9 9 9 9 9 9 9 9 10 10 10 11 10 10 10 10 10 11 12 12 11 7 5 5 4 5 10 11 11 11 12 12
5 4 3 6 7 7 8 8 8 8 8 8 8 8 8 9 9 8 8 9 9 10 10 9 9 9 10 10 11 11 11 10 7 5 4 4 7 10 10 10 10 10 11
4 4 3 3 4 6 7 7 7 7 7 8 8 8 7 7 8 8 8 8 9 9 9 8 9 9 9 10 11 11 11 10 6 3 4 3 7 9 9 9 9 9 10
4 4 3 3 3 3 3 6 7 7 7 7 7 7 7 7 7 7 6 7 8 9 9 8 8 8 9 9 10 10 10 8 5 4 2 3 7 8 9 9 9 9 9
3 2 3 3 2 2 3 5 5 6 7 6 6 7 6 3 4 4 5 7 8 8 8 8 8 8 8 8 9 9 7 4 4 3 2 5 8 9 9 9 9 9 9
3 2 2 3 2 3 3 3 2 3 3 3 3 3 3 3 3 4 5 7 7 7 7 7 7 7 6 4 5 7 3 4 3 3 3 6 7 8 8 8 9 8 8
4 3 3 3 3 3 2 2 2 2 2 2 3 3 3 3 2 2 2 3 4 5 4 4 4 3 3 3 3 3 3 3 2 2 3 6 6 7 7 7 7 7 7
4 3 3 3 3 3 3 2 2 2 2 2 2 3 3 2 2 2 1 1 2 1 2 2 2 2 3 3 3 3 4 2 2 2 3 6 6 7 7 6 6 6 6
4 3 3 3 4 3 3 2 3 2 2 2 2 2 3 2 2 2 1 1 1 1 2 1 2 2 3 3 3 3 3 3 3 3 2 6 6 6 6 6 6 6 6
4 4 3 4 4 3 3 3 3 2 2 2 2 2 3 2 2 2 2 1 1 1 1 1 2 2 2 2 3 3 2 2 3 3 2 4 6 6 5 5 5 5 5
4 4 4 4 4 4 3 3 3 2 2 2 2 2 3 2 2 2 2 1 1 1 1 2 2 2 2 2 3 2 2 2 2 2 2 2 3 5 5 4 4 4 4
3 4 4 4 4 4 3 3 2 2 2 2 2 2 2 3 2 2 2 1 1 1 1 2 2 2 2 2 2 1 1 1 2 2 2 2 2 2 3 4 4 4 3
3 3 4 4 4 4 4 3 3 2 2 2 2 1 1 2 2 2 2 1 1 1 1 1 2 2 2 1 1 1 1 1 1 1 2 2 1 1 1 3 4 4 3
1 2 2 3 3 4 3 3 2 2 2 1 1 1 1 2 2 2 2 2 2 2 1 1 2 2 1 1 2 2 1 1 1 1 1 1 1 2 2 2 2 3 4
2 2 1 2 2 3 3 3 2 2 1 1 1 1 2 1 2 2 2 2 2 2 1 2 2 2 1 1 2 1 2 1 1 1 1 1 1 1 1 2 2 2 2
2 1 1 2 2 2 2 2 2 2 2 1 1 1 1 1 1 2 2 2 2 2 2 2 2 1 1 0 1 1 0 2 2 1 1 0 0 1 1 2 1 1 2
1 1 0 1 1 1 2 2 2 2 1 1 0 1 1 1 1 1 2 2 2 2 2 2 2 2 2 1 0 2 2 2 1 2 1 1 1 1 1 1 1 1 1
1 1 1 1 2 2 2 3 3 2 2 2 2 1 1 1 1 1 2 2 2 1 2 2 1 1 2 2 1 0 1 2 2 1 2 2 2 1 2 2 1 1 1
1 1 1 2 2 2 2 2 2 2 1 1 1 1 1 1 1 1 2 2 2 1 2 2 1 2 2 2 2 1 0 0 1 2 2 2 2 2 2 2 2 1 1
2 2 2 2 1 1 2 1 1 2 2 2 1 2 1 1 1 1 1 1 2 2 2 2 2 2 2 2 2 1 2 2 2 2 2 2 3 3 2 2 2 2 1
Wind_Direction
202 221 175 131 116 108 103 98 95 90 87 86 86 87 87 86 85 84 84 83 80 78 77 78 78 77 76 76 75 75 74 73 72 69 68 70 73 74 74 73 73 74 80
166 187 158 132 121 112 105 99 95 94 92 90 87 86 88 88 87 87 86 84 81 78 78 78 78 77 75 74 74 74 75 75 73 66 61 62 70 75 74 72 73 80 82
143 156 150 131 124 116 110 104 98 97 98 95 91 89 87 90 90 89 88 85 82 80 79 79 78 77 75 74 73 74 76 75 73 65 57 50 66 75 75 75 74 77 82
139 134 143 129 126 120 115 110 105 103 100 99 97 93 90 91 91 89 88 85 83 83 82 80 78 77 75 73 72 73 74 75 70 63 52 44 58 74 77 76 75 77 79
126 119 135 125 126 122 116 112 109 106 103 101 99 95 93 92 92 90 88 88 87 86 84 82 80 79 76 73 73 73 75 72 66 58 50 45 53 76 78 78 76 76 77
114 113 136 128 126 122 119 115 112 109 107 104 100 98 96 96 93 91 89 91 89 88 86 83 80 79 75 72 72 74 75 71 62 54 49 48 57 77 79 78 79 78 76
120 114 136 130 127 123 121 118 115 111 108 106 103 100 98 99 96 92 91 94 93 92 89 85 82 79 75 72 73 75 72 67 62 56 48 47 67 81 81 80 81 81 79
123 114 119 125 125 123 120 118 115 112 107 104 102 101 100 101 98 94 94 98 98 97 93 88 83 79 75 74 74 73 69 64 62 60 49 51 74 80 81 82 83 83 81
104 103 98 108 117 122 120 117 115 112 106 101 97 95 92 96 98 97 94 94 98 95 92 90 86 81 77 75 75 74 68 60 55 49 53 54 73 80 82 82 83 87 86
95 95 92 91 97 108 120 116 111 107 101 95 92 87 83 88 94 90 85 88 94 92 88 88 86 79 75 74 76 72 63 57 49 43 40 67 78 83 83 81 82 85 86
109 106 104 103 102 102 111 114 110 106 99 95 92 89 79 68 76 80 78 85 89 91 88 87 84 76 69 69 72 64 57 50 46 39 40 72 79 83 85 83 81 82 84
159 154 136 126 119 118 115 107 100 95 99 91 93 94 84 71 63 74 78 81 79 78 79 76 69 63 58 54 61 58 52 45 45 33 45 69 80 81 82 83 81 81 84
167 165 159 147 138 132 126 120 108 100 101 99 103 98 96 85 72 65 73 68 67 63 58 55 47 42 50 54 56 60 59 49 39 26 36 60 74 82 83 82 81 82 86
164 170 162 154 145 143 138 137 137 134 127 120 116 109 112 105 95 87 83 84 81 75 71 59 54 50 54 58 64 69 61 50 40 27 34 52 61 76 81 82 82 82 85
170 172 165 159 151 149 145 149 143 147 146 140 126 121 119 121 122 117 105 103 103 96 90 78 70 63 59 58 62 72 69 60 50 37 33 46 53 65 73 78 80 83 85
184 181 167 164 153 149 152 153 151 148 146 134 126 126 124 131 137 129 118 109 104 106 111 114 101 83 67 68 68 69 74 70 60 44 35 37 44 50 59 69 72 77 86
190 179 175 167 148 147 152 153 148 152 145 137 136 135 131 127 134 128 124 122 123 115 113 104 91 80 73 67 67 70 77 71 69 58 43 33 28 33 39 54 63 63 73
181 177 177 164 151 153 150 142 139 136 131 129 130 137 140 130 129 128 121 116 105 111 115 112 104 89 71 68 60 46 59 66 67 65 57 44 29 21 23 39 45 51 50
174 174 174 160 157 156 145 134 124 123 125 124 117 127 134 126 133 132 126 121 103 106 115 124 100 108 104 91 76 53 37 52 46 64 57 43 37 29 14 22 30 34 38
108 130 149 149 150 139 130 122 115 108 108 110 119 131 122 121 124 125 128 126 116 103 97 95 104 89 111 120 87 50 14 17 26 44 46 41 29 33 26 17 11 5 17
60 70 103 127 141 137 141 149 152 157 157 145 136 125 122 124 132 131 128 132 127 127 127 128 113 101 75 104 90 43 8 9 13 357 25 40 26 31 36 19 8 7 354
75 67 91 113 140 149 153 153 162 158 167 167 137 124 135 148 153 139 134 143 149 136 119 123 113 120 135 130 125 117 27 340 334 320 316 304 340 16 16 4 4 3 350
67 68 95 106 126 124 116 113 102 82 76 87 144 172 187 191 174 152 146 147 161 156 159 161 164 148 177 236 176 157 157 211 302 317 304 294 322 344 324 321 323 323 347
41 48 59 72 79 86 109 131 146 155 175 193 189 199 205 197 178 161 154 159 167 166 165 175 177 174 167 194 271 294 176 155 161 290 314 322 325 299 296 300 297 291 308
35 49 62 71 66 70 83 130 155 164 179 157 161 175 189 212 204 181 169 167 173 178 178 177 178 189 181 186 195 194 168 12 169 191 259 295 318 299 284 271 265 266 275
25 40 49 71 62 61 76 102 139 171 173 161 172 190 204 213 222 216 203 193 190 192 194 195 193 198 203 193 197 192 183 189 196 194 226 255 282 294 296 269 248 256 261